SCFASCDA

Guest
Details From SCFA - CERRO MORENO INTL
To SCDA - DIEGO ARACENA INTL
Flight Number -
Tags decoded
Created
Modified
Stats Distance 175 nm / 325 km
Max Altitude 0 ft / 0 m
Waypoints 2
Social Downloads 0
Likes 0
Share VATSIM

Download

Looking for another format? Having issues loading an existing format? Contact us
Advertisement - Login to hide

Notes

Requested: SCFA ARPOM GAXIR SCDA Unmatched points: GAXIR

Route

SCFA SCDA

ID Type Via Altitude Latitude Longitude Leg Dist Tot Dist Heading (true) Name
O SCFA APT - 0 ft / 0 m -23.44448˚ -70.44510˚ - 0 nm - CERRO MORENO INTL
O SCDA APT - 0 ft / 0 m -20.53523˚ -70.18128˚ 175 nm 175 nm 5° / 5° DIEGO ARACENA INTL

Altitude Profile

Advertisement - Login to hide

Weather


0- 5 10 15 20 25 30 35+ Temperature / ° C

Clouds and Precipitation
Forecast for 2018-05-28 00:00 UTC. Updated 4 hours ago

Ground ~20,000 ft ~40,000 ft Winds

SCFA

Details ICAO SCFA (ANF)
Name CERRO MORENO INTL
Region Chile
Timezone America/Santiago (UTC-4.0)
Stats Elevation 455 ft / 139 m (AMSL)
Location -23.444477° -70.445100°
Runways 1
Magnetic Variation 3.558° W

METAR

SCFA 280300Z 07001KT 9999 BKN014 13/10 Q1017 NOSIG

Decode

TAF

TAF SCFA 272225Z 2800/2824 19006KT 9999 BKN015 TN13/2806Z TX18/2817Z BECMG 2808/2810 02004KT BECMG 2811/2813 16005KT SCT020 BECMG 2816/2818 21012KT FEW018 SCT300

Decode

Departure Runways

ID Width Length Bearing (true) Bearing (mag) Surface Threshold Offset Overrun Length
01 164 ft / 50 m 8,567 ft / 2,611 m 6.86° 10.42° Asphalt 0 ft / 0 m 50 ft / 15 m
19 164 ft / 50 m 8,567 ft / 2,611 m 186.86° 190.42° Asphalt 0 ft / 0 m 155 ft / 47 m

SCDA

Details ICAO SCDA (IQQ)
Name DIEGO ARACENA INTL
Region Chile
Timezone America/Santiago (UTC-4.0)
Stats Elevation 155 ft / 47 m (AMSL)
Location -20.535228° -70.181279°
Runways 1
Magnetic Variation 4.947° W

METAR

SCDA 280300Z VRB02KT 9999 OVC030 17/12 Q1017

Decode

TAF

TAF SCDA 272224Z 2800/2824 21008KT 9999 OVC027 TN16/2806Z TX19/2818Z BECMG 2808/2810 13004KT BECMG 2813/2814 CAVOK BECMG 2816/2818 26011KT BECMG 2820/2822 OVC030

Decode

Destination Runways

ID Width Length Bearing (true) Bearing (mag) Surface Threshold Offset Overrun Length
18 148 ft / 45 m 11,048 ft / 3,368 m 182.87° 187.82° Asphalt 0 ft / 0 m 200 ft / 61 m
36 148 ft / 45 m 11,048 ft / 3,368 m 2.87° 7.82° Asphalt 0 ft / 0 m 590 ft / 180 m

Approach Navaids

Runway Type Ident Frequency Range Bearing (true) Bearing (mag) Slope Elevation
18 Localiser IIQQ 109.90 MHz 18 nm / 33 km 182.85° 187.80° - 174 ft / 53 m (AMSL)
18 Glidescope IIQQ 109.90 MHz 10 nm / 19 km 182.87° 187.82° 3.20° 105 ft / 32 m (AMSL)
18 DME IIQQ 109.90 MHz 18 nm / 33 km - - - 105 ft / 32 m (AMSL)

Popular Alternatives